sat.trackr.live / text

‹ back to catalog

KUIPER-00386

NORAD 68921 · 2026-098C

PAYLOAD ACTIVE UNKNOWN

§ Identity

Operator
Country
US
Launch date
2026-04-30
Launch site
FRGUI
Launch vehicle
Mass (kg)
RCS (m²)

External: N2YO · Heavens-Above · Gunter

§ Orbital elements

Epoch: 2026-09-19T19:14:54.747456Z

Period
97.30 min
Inclination
51.9005°
Eccentricity
0.0000515
Mean motion
14.79927629 rev/d
Perigee alt
629.2 km
Apogee alt
629.9 km
Semi-major
7,007.7 km
B*
5.3025e-5
RAAN
354.7702°
Arg perigee
91.6341°
Mean anomaly
268.4680°
Rev number
2,156

§ Raw data

KUIPER-003861 68921U 26098C   26262.80202254  .00000183  00000+0  53025-4 0  99922 68921  51.9005 354.7702 0000515  91.6341 268.4680 14.79927629 21565

JSON: /api/v1/satellites/68921 · /tle

For live sub-satellite position, see the globe view (requires WebGL).

§ Visibility from observer

Set your observer location to see the next 7 days of passes ≥ 10°. The values pass through the URL so the page stays shareable.

No JS? Fill the form by hand. The geolocation button needs JavaScript.